RH
39 38 38 36 36 36 36 37 38 38 39 39 39 39 38 36 33 32 31 31 30 30 29 23 19 17 16 15 14 13 12 12 12 12 12 14 13 13 12 11 11 10 11 12 11 11 11 10 11 12 14 16 18 18 17 16 16 16 17 16 14 11 10 10 11 13 14 13 14 13 13 26 32 27 26 26 28 30 32 33 33 33 32 37 41 38 37 40
38 38 38 39 37 36 36 37 38 38 38 39 40 39 39 38 36 35 33 33 32 30 31 28 22 19 18 16 15 14 13 12 12 13 14 14 13 12 12 12 12 11 11 11 12 11 10 10 11 11 14 17 19 19 18 18 17 17 17 16 13 11 9 9 12 14 14 13 14 14 12 20 30 28 27 31 34 32 34 37 37 38 40 43 43 40 39 40
36 35 36 38 39 38 36 35 36 37 36 37 40 40 41 40 39 37 35 34 33 31 31 30 25 22 19 17 16 14 13 13 12 13 14 13 13 13 13 13 14 13 11 11 12 11 10 11 11 12 15 18 19 19 19 19 18 18 17 15 12 10 10 10 13 14 13 14 14 15 12 17 28 28 27 32 34 33 35 37 37 42 44 43 43 40 39 40
38 35 36 39 40 39 38 36 35 34 35 36 39 40 40 41 41 39 38 36 34 34 33 31 27 22 19 18 18 16 16 14 12 14 13 11 12 14 13 14 15 15 13 12 12 12 11 12 13 12 14 17 18 19 21 21 19 18 17 15 13 11 11 12 14 14 13 14 14 15 14 17 26 29 30 33 33 35 36 34 32 38 42 42 42 40 38 41
44 41 39 41 42 42 40 39 35 32 32 34 38 40 39 41 42 41 39 37 36 35 35 34 29 23 20 19 18 17 18 15 13 14 13 12 12 13 14 14 15 17 14 13 13 13 11 12 15 13 13 16 17 19 22 22 20 19 16 13 13 11 13 15 14 14 14 14 15 16 15 17 26 31 33 32 32 33 35 37 33 35 39 38 39 40 40 42
49 47 45 44 44 43 42 41 37 31 30 31 35 39 40 42 43 43 41 38 38 37 35 35 32 25 20 20 19 18 18 15 16 17 15 14 13 13 14 15 15 16 15 15 14 14 12 11 13 13 12 15 18 21 22 22 21 20 17 14 13 12 15 16 15 15 15 15 16 16 15 19 30 35 33 31 31 33 37 41 41 40 39 38 39 42 43 44
50 50 49 47 46 45 43 42 39 33 30 30 31 35 40 43 44 44 43 40 38 38 37 35 35 28 21 20 20 20 19 16 17 19 17 15 14 13 14 15 15 16 16 15 14 14 12 10 11 12 12 14 17 21 22 22 21 19 18 15 13 14 16 17 16 16 16 16 16 16 17 21 34 38 33 33 36 38 41 42 44 45 45 44 45 45 46 46
48 50 50 50 49 48 44 43 40 34 30 30 30 32 37 43 45 44 43 42 39 39 38 36 36 30 22 21 21 22 21 16 15 18 20 17 14 14 15 15 15 16 16 14 13 13 12 10 10 11 13 15 18 21 22 23 23 20 17 15 14 15 17 16 16 16 16 17 16 18 21 27 36 39 38 42 43 43 44 46 46 47 48 49 47 46 46 46
47 49 50 51 51 51 48 44 40 35 31 31 31 32 37 42 45 44 43 43 41 40 38 37 37 33 26 23 24 25 20 16 14 15 19 18 15 15 15 16 16 16 16 14 14 14 12 10 9 12 14 15 17 20 22 24 24 20 17 15 14 16 17 16 16 16 16 17 18 23 31 33 35 40 45 47 47 47 48 49 48 49 50 50 49 47 47 49
47 49 52 55 54 53 53 49 43 37 34 32 32 34 37 41 44 44 44 43 42 42 40 39 38 34 28 26 29 26 18 17 16 14 17 18 16 16 17 18 17 17 16 15 15 13 12 10 10 13 15 16 18 20 22 24 23 20 17 15 14 16 17 17 16 15 17 17 19 28 37 34 32 41 50 50 49 51 50 50 50 50 51 51 50 51 53 56
46 50 56 61 61 58 56 56 51 42 37 34 34 35 37 39 41 43 44 43 43 43 42 39 39 35 28 29 33 26 18 19 17 15 16 17 17 18 18 19 19 18 16 15 14 12 11 11 12 14 15 17 18 19 22 24 23 20 18 16 14 15 17 17 16 16 17 18 19 27 33 28 31 44 52 53 52 53 53 53 52 52 53 52 52 53 57 60
43 48 54 57 63 66 62 60 58 51 42 38 37 36 36 35 37 42 45 44 45 45 43 40 40 37 31 32 31 22 18 19 18 16 16 16 17 18 19 19 19 19 17 16 14 13 12 12 12 14 16 17 19 21 22 23 23 21 19 17 15 15 16 17 16 16 16 18 20 23 25 22 29 43 48 54 57 54 55 54 53 53 53 52 53 55 55 60
40 44 47 51 60 68 69 65 62 59 51 44 40 39 36 33 34 39 44 46 45 45 44 42 41 38 35 32 24 18 18 19 19 18 16 16 16 18 21 21 20 19 18 16 14 13 12 12 12 13 16 17 19 21 21 23 24 23 20 17 16 15 16 17 16 16 15 18 19 19 21 20 28 40 44 51 56 55 56 55 54 53 52 52 55 57 54 58
39 40 44 54 64 65 69 71 66 64 60 50 44 41 38 34 33 34 40 46 46 46 44 43 42 38 38 30 19 18 17 17 21 19 17 17 16 19 22 23 22 20 18 16 15 14 13 12 12 13 16 17 19 21 22 24 24 24 21 19 18 16 17 18 17 17 15 17 17 17 20 19 27 41 44 47 51 52 54 55 55 53 52 52 53 55 56 59
36 37 40 50 59 61 65 69 69 68 65 56 49 45 40 36 32 30 37 45 46 46 44 43 39 37 39 29 17 19 17 15 19 19 18 18 18 20 23 25 24 21 19 17 17 16 14 13 12 14 16 17 19 20 22 25 26 26 23 22 21 16 18 19 17 18 15 15 16 17 19 20 30 41 42 46 50 50 52 54 55 53 51 50 51 53 56 58
32 34 35 39 48 57 62 65 68 71 69 61 53 48 42 37 33 31 36 42 44 45 44 42 36 34 37 29 19 20 17 15 18 19 19 19 21 22 23 25 26 24 21 18 18 17 15 14 12 13 15 17 19 20 23 25 28 31 26 24 23 17 18 18 18 18 16 16 15 16 19 22 32 39 41 46 48 48 51 54 53 51 50 50 51 53 55 57
30 31 33 34 42 52 59 63 66 69 70 65 57 52 45 39 35 32 34 39 42 44 43 39 37 37 33 25 21 22 19 17 18 18 18 19 22 22 22 24 26 25 22 19 19 18 17 16 14 14 15 16 18 20 23 25 28 32 28 25 23 19 19 18 18 19 17 17 15 15 18 20 30 38 41 46 50 51 51 52 52 50 50 49 51 55 58 59
30 31 32 33 38 46 55 63 65 67 69 67 60 55 49 42 35 32 34 38 41 42 41 40 41 38 28 21 22 23 21 19 19 19 18 18 21 22 22 23 24 25 23 21 20 19 18 17 16 17 15 15 17 18 21 23 26 29 27 25 24 20 19 19 19 19 17 17 16 16 16 19 29 36 38 43 50 56 53 50 51 50 49 48 51 58 60 61
30 30 32 33 38 47 55 60 64 67 67 64 59 55 51 44 36 33 34 38 40 39 38 39 38 31 24 24 23 22 22 21 21 22 20 20 22 22 22 23 23 23 23 24 22 19 19 18 17 18 17 16 17 17 18 22 25 28 27 27 25 20 19 20 20 19 18 17 17 17 16 20 30 34 38 42 46 55 57 51 50 50 48 47 52 60 61 62
32 30 30 33 38 46 54 59 65 71 70 63 58 55 52 45 41 39 38 38 38 33 31 33 32 25 23 27 25 23 22 22 23 23 21 23 24 23 24 24 23 23 25 26 24 20 19 20 20 18 17 16 17 16 17 22 26 26 26 26 24 21 20 20 19 19 18 18 18 18 18 23 32 33 35 43 49 59 65 56 51 51 48 47 54 61 62 62
37 31 28 32 35 39 48 57 67 75 75 68 60 59 55 47 44 43 41 39 35 31 29 29 30 27 24 25 25 24 24 23 23 23 22 24 25 24 24 24 23 23 25 25 24 22 20 22 21 18 17 16 16 18 18 22 25 25 26 26 24 22 21 19 18 18 17 18 19 18 19 23 32 34 34 41 48 55 61 58 53 50 49 52 58 61 59 61
46 37 30 30 32 39 47 54 65 74 76 72 66 63 57 46 43 43 44 43 38 34 32 29 30 31 28 25 26 27 27 25 24 23 23 25 26 24 24 23 23 24 24 25 27 27 25 23 20 18 18 16 16 18 19 22 25 26 26 25 25 23 21 20 19 19 17 17 19 18 18 21 28 34 35 39 41 42 47 52 52 51 53 56 57 56 57 58
57 49 38 30 29 38 45 53 69 77 77 76 70 65 57 48 44 42 43 46 42 37 35 33 32 33 30 28 30 31 29 27 26 24 23 26 27 24 24 23 24 25 24 25 29 32 30 24 19 18 18 16 16 18 19 21 24 26 27 25 25 23 21 22 23 21 19 18 19 20 19 19 27 36 37 38 38 38 44 50 55 56 59 60 57 57 59 59
62 60 48 34 30 36 43 57 72 76 78 79 72 65 58 51 46 41 42 46 45 40 35 32 31 32 30 27 30 32 30 27 25 24 24 27 28 26 25 25 24 24 25 25 27 30 29 23 18 18 18 17 16 17 19 20 22 25 26 24 23 22 22 22 23 23 22 22 22 21 20 21 29 39 42 44 48 50 51 54 61 65 64 63 64 64 62 59
65 64 56 40 32 35 43 55 65 70 77 79 73 67 59 52 49 47 47 51 48 41 36 33 31 31 29 27 29 30 31 27 23 23 25 28 30 27 26 26 24 23 24 26 27 28 27 22 18 18 18 17 16 17 18 18 20 22 24 23 21 22 22 22 23 23 23 25 23 21 21 23 29 37 40 46 54 59 61 61 64 71 69 66 67 65 61 60
73 67 60 45 35 39 46 52 61 73 79 76 71 69 62 55 56 54 53 57 51 38 35 35 32 30 28 28 29 29 31 28 22 23 25 28 30 28 26 25 24 24 25 27 27 27 25 21 19 19 19 18 17 17 17 17 18 20 21 21 21 22 22 23 22 22 24 26 26 22 22 26 31 38 39 42 49 55 63 68 67 69 72 69 66 63 61 60
82 73 64 50 38 43 56 62 70 79 78 74 72 71 63 57 60 57 53 59 53 37 34 34 31 31 30 28 27 28 30 27 23 24 24 26 29 29 26 24 24 25 26 28 28 26 23 21 21 20 19 19 18 18 17 17 18 19 19 19 21 22 22 23 21 22 25 27 27 24 23 27 33 39 41 42 49 54 60 68 69 69 68 66 64 62 61 60
84 78 68 54 40 45 65 74 77 80 79 76 73 69 66 63 63 58 56 60 52 37 35 34 31 34 33 30 28 27 27 26 25 24 23 25 27 27 26 24 24 26 27 28 29 27 23 21 22 21 21 21 18 17 16 17 17 18 19 19 21 23 23 24 22 23 26 27 29 27 24 25 31 42 51 52 52 56 58 59 64 66 64 62 62 61 62 62
80 78 68 57 43 43 63 77 84 89 87 81 73 68 68 69 66 63 63 63 51 38 38 34 31 36 37 32 29 27 27 27 26 25 25 26 27 27 27 25 25 27 28 29 30 29 24 20 20 20 21 20 17 16 16 16 17 16 17 20 24 26 25 24 24 25 27 30 30 28 25 26 35 49 60 63 58 55 54 53 57 62 62 61 61 62 62 62
68 70 66 58 44 42 62 81 91 96 93 87 78 70 69 69 67 68 67 60 51 44 41 36 33 38 40 34 29 29 30 29 28 27 27 28 27 26 26 26 27 28 28 30 31 29 25 21 20 20 19 18 17 18 16 15 15 15 17 21 25 30 28 27 30 28 29 33 30 28 26 26 37 53 58 58 54 47 46 51 57 60 61 61 62 62 62 62
55 59 61 53 46 56 79 92 96 96 97 94 83 73 73 71 67 70 65 55 54 52 44 39 36 38 41 36 30 30 32 32 31 30 31 30 29 28 27 27 27 28 28 30 30 29 27 25 22 20 19 18 18 20 18 16 15 15 17 21 27 34 32 28 31 29 30 35 30 28 30 24 32 50 54 49 45 42 43 46 50 55 58 61 62 63 63 63
52 52 55 49 54 75 92 97 96 97 98 95 85 75 75 73 67 68 65 59 63 62 51 41 38 40 42 36 31 31 33 34 32 31 31 31 30 29 27 25 25 26 26 28 31 31 30 27 25 22 20 19 19 21 20 18 17 16 18 21 26 34 33 30 33 34 34 34 28 29 30 26 30 43 49 48 43 40 42 44 46 51 57 60 62 63 64 65
51 50 50 48 62 84 95 96 97 98 96 91 86 77 72 72 68 65 66 68 72 69 58 46 39 40 41 35 30 31 35 36 34 33 31 31 31 29 28 25 24 27 28 30 35 35 32 30 27 24 21 19 19 22 21 19 18 17 18 20 25 32 35 34 38 39 35 30 30 32 28 28 40 45 48 52 48 43 45 49 52 56 59 62 64 65 66 66
51 51 49 49 66 85 94 96 96 98 95 91 87 77 70 72 70 66 68 74 76 70 63 54 44 41 41 35 31 31 36 38 36 35 33 32 32 31 29 27 24 28 34 34 34 36 36 34 30 26 23 19 19 20 19 19 18 17 17 19 24 32 35 35 37 36 33 30 31 35 33 38 52 53 50 55 54 52 55 57 58 62 64 64 66 68 66 64
50 50 48 55 74 90 94 95 95 97 96 95 88 73 66 69 73 75 75 78 78 69 62 57 46 43 43 38 35 35 37 39 37 36 35 33 33 32 30 28 25 27 32 34 34 35 35 34 30 26 24 20 19 19 18 19 19 17 18 19 21 29 34 36 38 37 37 34 36 47 54 57 60 55 52 57 59 60 64 65 65 66 66 65 66 67 66 64
57 56 59 71 86 94 95 94 94 96 97 95 86 72 67 68 75 84 84 83 81 71 65 57 44 43 45 39 37 39 39 41 39 37 36 35 34 33 30 28 26 25 29 35 38 36 35 34 30 26 25 21 19 21 19 19 21 19 18 19 19 26 34 36 37 40 41 38 44 61 69 66 64 61 60 65 67 66 67 68 68 67 67 68 67 66 65 65
72 73 78 86 91 93 96 95 94 97 97 91 83 77 72 71 79 89 87 84 82 75 72 67 50 44 45 40 38 39 39 42 41 37 38 37 36 34 32 29 27 26 28 33 38 38 38 37 33 27 25 23 20 22 20 18 21 20 17 18 21 27 34 38 40 43 44 44 54 68 70 67 68 68 67 71 73 69 67 69 70 70 70 70 68 65 66 67
83 86 90 93 94 92 93 95 96 99 96 89 86 82 76 75 82 89 88 86 84 77 77 78 65 51 44 39 38 38 39 42 41 39 39 38 37 35 33 31 29 28 29 32 36 39 38 36 35 29 26 25 24 25 25 21 19 19 18 18 22 27 32 36 40 42 43 51 64 71 69 68 68 67 65 68 71 69 67 69 71 71 71 69 67 65 67 69
86 91 96 94 90 88 89 93 95 95 92 92 92 86 79 79 84 87 89 89 85 80 80 80 73 61 50 43 39 37 38 41 40 39 37 36 38 38 34 33 32 31 32 33 36 41 40 38 39 33 27 27 29 28 29 25 21 21 22 19 20 27 30 30 36 40 44 57 71 72 69 68 65 63 58 58 64 67 65 66 69 69 68 66 64 64 67 69
81 87 92 88 82 82 84 87 89 90 91 93 92 85 80 81 83 87 90 89 86 85 82 76 72 67 59 52 45 38 38 40 40 38 36 36 37 38 36 34 34 34 34 36 39 42 41 39 43 41 32 31 32 30 28 27 24 23 23 21 20 24 27 29 33 36 42 59 73 73 71 66 61 60 56 55 62 63 60 61 64 67 67 66 65 65 68 69
79 84 88 84 78 76 77 79 81 84 87 87 83 79 78 80 83 87 88 88 88 87 82 75 70 67 63 57 51 41 37 38 39 38 37 35 36 38 37 34 35 36 36 39 41 43 42 42 46 47 39 34 32 30 28 27 25 23 22 22 22 24 27 30 35 35 38 54 66 68 68 62 58 60 57 56 60 60 58 59 62 67 68 67 67 67 69 69
83 84 83 81 78 77 78 79 77 76 80 80 77 76 78 80 82 84 87 88 89 87 82 75 71 67 63 60 55 46 38 37 38 38 37 35 35 38 38 36 36 37 38 40 40 43 46 46 46 46 43 39 36 33 31 29 27 26 24 23 24 26 26 29 36 37 36 45 55 59 60 58 58 62 58 55 59 60 60 61 62 67 69 69 69 69 70 70
83 79 76 75 76 77 79 79 76 77 79 77 75 76 79 80 80 83 87 89 88 84 78 73 71 69 64 62 60 52 44 39 37 37 38 36 35 38 39 39 38 38 39 40 41 44 47 45 46 47 45 44 40 37 34 32 30 29 27 25 24 25 25 29 39 41 38 45 52 54 58 59 59 61 59 59 61 62 62 62 63 66 69 72 73 72 72 72
81 77 72 70 69 71 74 75 76 81 81 77 79 81 81 81 81 84 89 89 86 82 76 72 72 70 68 69 67 58 49 45 39 34 36 37 36 38 40 39 40 40 39 40 42 44 46 48 50 50 49 47 44 42 39 36 34 35 33 29 25 25 26 28 34 36 36 43 45 47 56 61 60 61 62 64 66 65 64 63 62 65 68 72 75 75 73 72
82 76 69 65 67 71 74 77 80 83 83 84 86 85 85 85 86 86 87 85 82 80 76 72 71 70 73 77 73 62 54 51 44 36 38 42 41 39 38 38 39 40 37 39 42 43 47 52 51 52 57 57 52 49 48 42 36 35 35 30 26 26 25 25 28 29 31 38 41 44 52 57 58 62 66 67 69 70 68 65 64 65 67 68 71 74 74 72
85 78 71 69 72 77 81 86 87 86 87 91 91 88 90 94 92 88 87 85 81 78 75 72 70 72 76 81 79 69 61 58 51 42 42 47 47 43 38 37 38 38 38 40 43 45 51 54 53 55 60 57 52 52 50 42 37 35 34 33 31 29 27 29 30 28 30 37 42 46 50 52 55 59 61 63 65 67 68 67 66 66 67 68 69 71 73 73
84 78 75 75 77 81 85 89 90 89 90 93 95 95 96 98 96 90 87 85 79 75 74 72 72 75 79 84 82 74 69 65 57 49 46 49 53 51 44 40 39 38 40 43 45 49 52 52 55 58 59 55 52 52 49 44 44 45 43 41 39 34 31 31 30 30 33 35 38 45 48 49 51 54 55 57 59 62 65 65 66 66 68 70 71 72 72 73
81 77 76 77 80 84 88 89 90 91 92 93 96 99 97 96 96 92 87 83 77 74 75 75 76 78 81 84 80 75 73 69 60 53 51 54 58 58 53 47 43 41 42 43 46 51 52 52 55 59 62 63 59 54 52 52 54 56 55 51 48 42 35 32 33 36 35 31 36 45 48 46 48 50 51 53 55 58 62 65 68 70 71 74 74 73 72 71
78 79 80 83 86 88 88 87 89 93 95 94 97 98 95 94 95 91 86 83 79 77 78 77 78 80 80 80 80 78 76 71 64 59 57 58 61 60 57 54 50 46 45 43 46 51 52 53 58 63 68 70 66 60 56 55 56 58 58 56 54 50 43 40 43 42 38 37 42 49 50 49 51 51 51 55 58 61 65 69 71 73 73 74 73 72 72 72
78 83 85 87 91 93 92 90 92 96 96 96 97 96 91 91 93 92 88 85 82 80 79 77 78 80 80 80 83 83 77 72 70 67 62 62 63 61 60 59 54 50 47 44 45 49 51 55 62 68 71 71 70 67 61 58 59 60 61 60 57 53 51 50 51 49 48 48 49 51 53 54 54 54 56 61 63 66 68 70 72 73 73 73 73 73 74 73
81 86 90 92 94 95 95 93 92 95 97 98 98 94 91 91 92 91 88 83 80 80 80 79 78 80 84 84 83 81 75 73 74 71 67 66 63 63 65 63 57 52 49 46 47 49 53 59 64 67 70 71 71 69 65 63 61 60 62 65 61 57 56 56 55 54 53 53 54 55 55 54 55 56 58 63 67 69 71 71 72 73 73 74 74 75 76 75
83 87 91 94 94 91 90 91 91 93 95 96 95 91 89 89 88 88 85 81 80 78 77 78 77 79 86 87 82 77 74 74 74 70 69 68 66 67 70 66 60 57 53 51 54 56 58 62 66 66 68 72 73 71 68 63 59 60 65 67 66 63 61 60 60 58 54 53 55 56 53 53 55 56 58 62 66 68 70 70 70 72 73 74 73 74 75 75